Location: Unspecified
(47.9110°N, 14.3980°E)
Time: 20:57:20
(UTC+00:00)

Cosmos 44 Rocket - Pass Details

Date: 06 August 2020
Orbit: 647 x 743 km, 65.1° (Epoch: 21 September)

Event Time Altitude Azimuth Distance (km) Brightness Sun altitude
Rises 23:07:24 0° 324° (NW) 3,079 7.5 -25.7°
Reaches altitude 10° 23:09:50 10° 331° (NNW) 2,174 6.6 -25.7°
Maximum altitude 23:14:35 45° 44° (NE) 980 4.3 -25.7°
Enters shadow 23:16:30 31° 95° (E) 1,260 4.5 -25.7°
